| time (UTC) | temp F | wind direction | speed MPH | gust MPH | rain 1hr in | rain 24hr in | rain mn in | humidity % | barometer mb |
| 20260507095704 | 47 | 96 | 6.0 | 19.0 | 0.00 | 0.00 | 0.00 | 73 | 1013.1 |
| 20260507095205 | 47 | 145 | 8.0 | 19.0 | 0.00 | 0.00 | 0.00 | 74 | 1013.1 |
| 20260507094704 | 47 | 130 | 10.0 | 19.0 | 0.00 | 0.00 | 0.00 | 74 | 1013.1 |
| 20260507094205 | 47 | 171 | 7.0 | 18.0 | 0.00 | 0.00 | 0.00 | 74 | 1013.1 |
| 20260507093705 | 47 | 151 | 8.0 | 15.0 | 0.00 | 0.00 | 0.00 | 73 | 1013.0 |
| 20260507093204 | 47 | 164 | 6.0 | 15.0 | 0.00 | 0.00 | 0.00 | 72 | 1012.8 |
| 20260507092705 | 48 | 111 | 8.0 | 14.0 | 0.00 | 0.00 | 0.00 | 71 | 1013.0 |
| 20260507092205 | 48 | 80 | 5.0 | 14.0 | 0.00 | 0.00 | 0.00 | 70 | 1013.0 |
| 20260507091705 | 49 | 138 | 6.0 | 14.0 | 0.00 | 0.00 | 0.00 | 70 | 1012.8 |
| 20260507090732 | 48 | 154 | 5.0 | 13.0 | 0.00 | 0.00 | 0.00 | 71 | 1012.7 |
| 20260507085704 | 47 | 116 | 5.0 | 17.0 | 0.00 | 0.00 | 0.00 | 72 | 1012.7 |
| 20260507085204 | 47 | 157 | 7.0 | 17.0 | 0.00 | 0.00 | 0.00 | 71 | 1012.5 |
| 20260507084704 | 47 | 148 | 7.0 | 17.0 | 0.00 | 0.00 | 0.00 | 71 | 1012.5 |
| 20260507084204 | 48 | 185 | 5.0 | 18.0 | 0.00 | 0.00 | 0.00 | 71 | 1012.5 |
| 20260507083704 | 47 | 166 | 7.0 | 18.0 | 0.00 | 0.00 | 0.00 | 70 | 1012.3 |
| 20260507083205 | 48 | 172 | 8.0 | 18.0 | 0.00 | 0.00 | 0.00 | 71 | 1012.3 |
| 20260507082705 | 48 | 118 | 6.0 | 16.0 | 0.00 | 0.00 | 0.00 | 70 | 1012.4 |
| 20260507082205 | 48 | 140 | 7.0 | 15.0 | 0.00 | 0.00 | 0.00 | 69 | 1012.5 |
| 20260507081205 | 49 | 99 | 6.0 | 14.0 | 0.00 | 0.00 | 0.00 | 67 | 1012.5 |
| 20260507080705 | 50 | 125 | 6.0 | 14.0 | 0.00 | 0.00 | 0.00 | 65 | 1012.5 |
| 20260507080204 | 51 | 117 | 3.0 | 14.0 | 0.00 | 0.00 | 0.00 | 65 | 1012.4 |
| 20260507075205 | 51 | 82 | 6.0 | 13.0 | 0.00 | 0.00 | 0.00 | 67 | 1012.3 |
| 20260507074704 | 50 | 120 | 5.0 | 13.0 | 0.00 | 0.00 | 0.00 | 66 | 1012.5 |
| 20260507074205 | 50 | 100 | 6.0 | 16.0 | 0.00 | 0.00 | 0.00 | 66 | 1012.5 |
| 20260507073705 | 49 | 138 | 3.0 | 16.0 | 0.00 | 0.00 | 0.00 | 65 | 1012.4 |
| 20260507073204 | 50 | 159 | 6.0 | 16.0 | 0.00 | 0.00 | 0.00 | 63 | 1012.3 |
| 20260507072705 | 50 | 140 | 6.0 | 12.0 | 0.00 | 0.00 | 0.00 | 65 | 1012.2 |
| 20260507072204 | 50 | 162 | 2.0 | 10.0 | 0.00 | 0.00 | 0.00 | 68 | 1012.2 |
| 20260507071705 | 49 | 83 | 5.0 | 10.0 | 0.00 | 0.00 | 0.00 | 71 | 1012.2 |
| 20260507071204 | 48 | 124 | 2.0 | 10.0 | 0.00 | 0.00 | 0.00 | 69 | 1012.1 |
| 20260507070704 | 48 | 99 | 5.0 | 7.0 | 0.00 | 0.00 | 0.00 | 72 | 1012.2 |
| 20260507070204 | 47 | 92 | 4.0 | 7.0 | 0.00 | 0.00 | 0.00 | 73 | 1012.2 |
| 20260507065705 | 47 | 137 | 3.0 | 7.0 | 0.00 | 0.00 | 0.00 | 74 | 1012.2 |
| 20260507065205 | 46 | 111 | 4.0 | 9.0 | 0.00 | 0.00 | 0.00 | 76 | 1012.2 |
| 20260507064704 | 45 | 145 | 2.0 | 9.0 | 0.00 | 0.00 | 0.00 | 75 | 1012.3 |
| 20260507064205 | 45 | 121 | 3.0 | 9.0 | 0.00 | 0.00 | 0.00 | 75 | 1012.3 |
| 20260507063705 | 44 | 104 | 4.0 | 6.0 | 0.00 | 0.00 | 0.00 | 76 | 1012.2 |
| 20260507063205 | 44 | 154 | 3.0 | 6.0 | 0.00 | 0.00 | 0.00 | 77 | 1012.1 |
| 20260507062705 | 43 | 118 | 2.0 | 7.0 | 0.00 | 0.00 | 0.00 | 78 | 1012.1 |
| 20260507062204 | 43 | 130 | 3.0 | 7.0 | 0.00 | 0.00 | 0.00 | 78 | 1012.1 |
| 20260507061705 | 43 | 131 | 2.0 | 7.0 | 0.00 | 0.00 | 0.00 | 79 | 1012.1 |
| 20260507061205 | 43 | 99 | 2.0 | 6.0 | 0.00 | 0.00 | 0.00 | 80 | 1012.1 |
| 20260507060705 | 43 | 134 | 3.0 | 6.0 | 0.00 | 0.00 | 0.00 | 80 | 1012.1 |
| 20260507055704 | 42 | 117 | 2.0 | 9.0 | 0.00 | 0.00 | 0.00 | 81 | 1011.9 |
| 20260507054704 | 42 | 172 | 2.0 | 5.0 | 0.00 | 0.00 | 0.00 | 82 | 1011.8 |
| 20260507053704 | 41 | 130 | 0.0 | 5.0 | 0.00 | 0.00 | 0.00 | 83 | 1011.8 |
| 20260507053205 | 41 | 127 | 2.0 | 6.0 | 0.00 | 0.00 | 0.00 | 83 | 1011.7 |
| 20260507051704 | 40 | 257 | 1.0 | 4.0 | 0.00 | 0.00 | 0.00 | 85 | 1011.7 |
| 20260507050705 | 39 | 159 | 1.0 | 4.0 | 0.00 | 0.00 | 0.00 | 86 | 1011.7 |
| 20260507050204 | 39 | 118 | 2.0 | 4.0 | 0.00 | 0.00 | 0.00 | 86 | 1011.7 |
| 20260507045705 | 39 | 227 | 1.0 | 4.0 | 0.00 | 0.00 | 0.00 | 86 | 1011.7 |
| 20260507045204 | 39 | 214 | 2.0 | 4.0 | 0.00 | 0.00 | 0.00 | 86 | 1011.7 |
| 20260507044704 | 39 | 210 | 1.0 | 4.0 | 0.00 | 0.00 | 0.00 | 86 | 1011.7 |
| 20260507044204 | 39 | 216 | 1.0 | 3.0 | 0.00 | 0.00 | 0.00 | 86 | 1011.7 |
| 20260507043705 | 39 | 278 | 0.0 | 3.0 | 0.00 | 0.00 | 0.00 | 86 | 1011.7 |
| 20260507043204 | 39 | 275 | 1.0 | 2.0 | 0.00 | 0.00 | 0.00 | 86 | 1011.8 |
| 20260507042704 | 39 | 272 | 0.0 | 4.0 | 0.00 | 0.00 | 0.00 | 86 | 1011.8 |
| 20260507041704 | 40 | 0 | 0.0 | 4.0 | 0.00 | 0.00 | 0.00 | 87 | 1012.1 |
| 20260507041204 | 39 | 317 | 0.0 | 4.0 | 0.00 | 0.00 | 0.00 | 87 | 1012.1 |
| 20260507040728 | 39 | 354 | 2.0 | 5.0 | 0.00 | 0.00 | 0.00 | 87 | 1011.9 |
| 20260507040204 | 40 | 269 | 0.0 | 5.0 | 0.00 | 0.00 | 0.00 | 88 | 1011.9 |
| 20260507035704 | 39 | 233 | 0.0 | 5.0 | 0.00 | 0.00 | 0.00 | 88 | 1011.9 |
| 20260507035204 | 39 | 147 | 2.0 | 5.0 | 0.00 | 0.00 | 0.00 | 89 | 1011.9 |
| 20260507034705 | 39 | 110 | 1.0 | 6.0 | 0.00 | 0.00 | 0.00 | 89 | 1011.9 |
| 20260507033705 | 39 | 164 | 0.0 | 6.0 | 0.00 | 0.00 | 0.00 | 90 | 1012.2 |
| 20260507033205 | 39 | 169 | 3.0 | 6.0 | 0.00 | 0.00 | 0.00 | 90 | 1012.2 |
| 20260507032705 | 39 | 199 | 2.0 | 7.0 | 0.00 | 0.00 | 0.00 | 91 | 1012.2 |
| 20260507032204 | 39 | 138 | 3.0 | 7.0 | 0.00 | 0.00 | 0.00 | 91 | 1012.2 |
| 20260507031704 | 39 | 166 | 4.0 | 7.0 | 0.00 | 0.00 | 0.00 | 92 | 1012.2 |
| 20260507031205 | 39 | 175 | 3.0 | 7.0 | 0.00 | 0.00 | 0.00 | 92 | 1012.3 |
| 20260507030704 | 39 | 169 | 3.0 | 7.0 | 0.00 | 0.00 | 0.00 | 92 | 1012.3 |
| 20260507030204 | 38 | 124 | 1.0 | 7.0 | 0.00 | 0.00 | 0.00 | 92 | 1012.3 |
| 20260507025704 | 38 | 140 | 4.0 | 5.0 | 0.00 | 0.00 | 0.00 | 92 | 1012.4 |
| 20260507024705 | 38 | 123 | 0.0 | 5.0 | 0.00 | 0.00 | 0.00 | 92 | 1012.3 |
| 20260507023705 | 38 | 124 | 1.0 | 5.0 | 0.00 | 0.00 | 0.00 | 92 | 1012.3 |
| 20260507023204 | 38 | 142 | 3.0 | 4.0 | 0.00 | 0.00 | 0.00 | 92 | 1012.3 |
| 20260507022204 | 38 | 92 | 2.0 | 3.0 | 0.00 | 0.00 | 0.00 | 92 | 1012.4 |
| 20260507021705 | 37 | 128 | 1.0 | 3.0 | 0.00 | 0.00 | 0.00 | 92 | 1012.4 |
| 20260507021205 | 37 | 124 | 2.0 | 3.0 | 0.00 | 0.00 | 0.00 | 92 | 1012.4 |
| 20260507020723 | 37 | 128 | 1.0 | 3.0 | 0.00 | 0.00 | 0.00 | 92 | 1012.4 |
| 20260507020205 | 37 | 130 | 1.0 | 3.0 | 0.00 | 0.00 | 0.00 | 92 | 1012.4 |
| 20260507015704 | 37 | 133 | 1.0 | 2.0 | 0.00 | 0.00 | 0.00 | 92 | 1012.4 |
| 20260507015204 | 37 | 107 | 1.0 | 2.0 | 0.00 | 0.00 | 0.00 | 92 | 1012.4 |
| 20260507014704 | 37 | 145 | 0.0 | 2.0 | 0.00 | 0.00 | 0.00 | 92 | 1012.5 |
| 20260507014204 | 37 | 158 | 0.0 | 3.0 | 0.00 | 0.00 | 0.00 | 91 | 1012.4 |
| 20260507013205 | 37 | 164 | 1.0 | 3.0 | 0.00 | 0.00 | 0.00 | 92 | 1012.4 |
| 20260507012705 | 37 | 183 | 0.0 | 3.0 | 0.00 | 0.00 | 0.00 | 91 | 1012.5 |
| 20260507012205 | 37 | 109 | 0.0 | 3.0 | 0.00 | 0.00 | 0.00 | 91 | 1012.5 |
| 20260507011705 | 37 | 109 | 1.0 | 2.0 | 0.00 | 0.00 | 0.00 | 91 | 1012.6 |
| 20260507005704 | 37 | 94 | 0.0 | 0.0 | 0.00 | 0.00 | 0.00 | 90 | 1012.6 |
| 20260507005204 | 38 | 94 | 0.0 | 0.0 | 0.00 | 0.00 | 0.00 | 91 | 1012.7 |
| 20260507004705 | 38 | 94 | 0.0 | 0.0 | 0.00 | 0.00 | 0.00 | 91 | 1012.7 |
| 20260507003705 | 38 | 94 | 0.0 | 2.0 | 0.00 | 0.00 | 0.00 | 90 | 1012.6 |
| 20260507003204 | 38 | 94 | 0.0 | 2.0 | 0.00 | 0.00 | 0.00 | 90 | 1012.7 |
| 20260507002704 | 38 | 94 | 0.0 | 2.0 | 0.00 | 0.00 | 0.00 | 90 | 1012.7 |
| 20260507002205 | 38 | 94 | 0.0 | 2.0 | 0.00 | 0.00 | 0.00 | 90 | 1012.7 |
| 20260507001705 | 38 | 94 | 0.0 | 2.0 | 0.00 | 0.00 | 0.00 | 90 | 1012.7 |
| 20260507001204 | 38 | 94 | 1.0 | 0.0 | 0.00 | 0.00 | 0.00 | 90 | 1012.7 |
| 20260507000704 | 38 | 94 | 0.0 | 0.0 | 0.00 | 0.00 | 0.00 | 89 | 1012.8 |
| 20260507000205 | 38 | 94 | 0.0 | 0.0 | 0.00 | 0.00 | 0.00 | 89 | 1012.8 |
| 20260506235705 | 38 | 94 | 0.0 | 0.0 | 0.00 | 0.00 | 0.00 | 89 | 1012.8 |
| 20260506234205 | 38 | 96 | 0.0 | 0.0 | 0.00 | 0.00 | 0.00 | 88 | 1013.1 |
| 20260506233704 | 38 | 96 | 0.0 | 0.0 | 0.00 | 0.00 | 0.00 | 88 | 1013.0 |
| 20260506233230 | 38 | 96 | 0.0 | 0.0 | 0.00 | 0.00 | 0.00 | 87 | 1013.0 |
| 20260506232705 | 39 | 96 | 0.0 | 0.0 | 0.00 | 0.00 | 0.00 | 87 | 1013.0 |
| 20260506230205 | 40 | 96 | 0.0 | 0.0 | 0.00 | 0.00 | 0.00 | 85 | 1013.0 |
| 20260506225705 | 40 | 96 | 0.0 | 2.0 | 0.00 | 0.00 | 0.00 | 85 | 1013.0 |
| 20260506225204 | 40 | 96 | 0.0 | 2.0 | 0.00 | 0.00 | 0.00 | 85 | 1013.0 |
| 20260506224704 | 41 | 96 | 0.0 | 3.0 | 0.00 | 0.00 | 0.00 | 84 | 1012.8 |
| 20260506224205 | 41 | 96 | 1.0 | 4.0 | 0.00 | 0.00 | 0.00 | 83 | 1012.8 |
| 20260506223705 | 42 | 96 | 0.0 | 4.0 | 0.00 | 0.00 | 0.00 | 83 | 1012.8 |
| 20260506223204 | 42 | 82 | 1.0 | 4.0 | 0.00 | 0.00 | 0.00 | 83 | 1012.7 |
| 20260506222705 | 42 | 83 | 2.0 | 4.0 | 0.00 | 0.00 | 0.00 | 84 | 1012.8 |
| 20260506222204 | 42 | 157 | 2.0 | 5.0 | 0.00 | 0.00 | 0.00 | 84 | 1012.8 |
| 20260506221705 | 42 | 155 | 3.0 | 5.0 | 0.00 | 0.00 | 0.00 | 84 | 1012.7 |
| 20260506221204 | 42 | 117 | 1.0 | 4.0 | 0.00 | 0.00 | 0.00 | 84 | 1012.7 |
| 20260506215705 | 43 | 104 | 1.0 | 3.0 | 0.00 | 0.00 | 0.00 | 83 | 1012.8 |
| 20260506215205 | 43 | 106 | 1.0 | 3.0 | 0.00 | 0.00 | 0.00 | 83 | 1012.8 |
| 20260506214205 | 43 | 106 | 1.0 | 4.0 | 0.00 | 0.00 | 0.00 | 84 | 1012.8 |
| 20260506212704 | 43 | 142 | 0.0 | 3.0 | 0.00 | 0.00 | 0.00 | 83 | 1012.7 |
| 20260506212205 | 43 | 142 | 0.0 | 4.0 | 0.00 | 0.00 | 0.00 | 83 | 1012.7 |
| 20260506211705 | 43 | 142 | 1.0 | 4.0 | 0.00 | 0.00 | 0.00 | 82 | 1012.8 |
| 20260506211204 | 44 | 130 | 1.0 | 4.0 | 0.00 | 0.00 | 0.00 | 82 | 1012.7 |
| 20260506210204 | 44 | 240 | 0.0 | 3.0 | 0.00 | 0.00 | 0.00 | 81 | 1012.6 |
| 20260506205705 | 45 | 241 | 1.0 | 4.0 | 0.00 | 0.00 | 0.00 | 80 | 1012.5 |
| 20260506205205 | 45 | 303 | 1.0 | 4.0 | 0.00 | 0.00 | 0.00 | 80 | 1012.4 |
| 20260506204205 | 46 | 0 | 2.0 | 2.0 | 0.00 | 0.00 | 0.00 | 80 | 1012.4 |
| 20260506202705 | 46 | 69 | 0.0 | 4.0 | 0.00 | 0.00 | 0.00 | 82 | 1012.3 |
| 20260506202204 | 45 | 69 | 0.0 | 4.0 | 0.00 | 0.00 | 0.00 | 82 | 1012.2 |
| 20260506201705 | 46 | 111 | 0.0 | 3.0 | 0.00 | 0.00 | 0.00 | 83 | 1012.2 |
| 20260506201205 | 45 | 111 | 0.0 | 3.0 | 0.00 | 0.00 | 0.00 | 83 | 1012.2 |
| 20260506200705 | 45 | 111 | 2.0 | 3.0 | 0.00 | 0.00 | 0.00 | 83 | 1012.3 |
| 20260506200205 | 45 | 85 | 1.0 | 2.0 | 0.00 | 0.00 | 0.00 | 82 | 1012.3 |
| 20260506195705 | 45 | 85 | 1.0 | 2.0 | 0.00 | 0.00 | 0.00 | 81 | 1012.2 |
| 20260506195204 | 45 | 85 | 0.0 | 2.0 | 0.00 | 0.00 | 0.00 | 80 | 1011.9 |
| 20260506194705 | 45 | 85 | 0.0 | 2.0 | 0.00 | 0.00 | 0.00 | 80 | 1011.9 |
| 20260506194205 | 45 | 85 | 0.0 | 2.0 | 0.00 | 0.00 | 0.00 | 79 | 1011.9 |
| 20260506193705 | 46 | 85 | 2.0 | 2.0 | 0.00 | 0.00 | 0.00 | 79 | 1011.8 |
| 20260506192704 | 46 | 85 | 0.0 | 1.0 | 0.00 | 0.00 | 0.00 | 76 | 1011.7 |
| 20260506192205 | 46 | 85 | 0.0 | 2.0 | 0.00 | 0.00 | 0.00 | 75 | 1011.7 |
| 20260506191722 | 47 | 85 | 0.0 | 2.0 | 0.00 | 0.00 | 0.00 | 74 | 1011.7 |
| 20260506191205 | 47 | 85 | 0.0 | 2.0 | 0.00 | 0.00 | 0.00 | 73 | 1011.6 |
| 20260506190704 | 48 | 85 | 2.0 | 2.0 | 0.00 | 0.00 | 0.00 | 72 | 1011.7 |
| 20260506190204 | 48 | 85 | 1.0 | 0.0 | 0.00 | 0.00 | 0.00 | 71 | 1011.5 |
| 20260506185705 | 49 | 85 | 0.0 | 0.0 | 0.00 | 0.00 | 0.00 | 71 | 1011.6 |
| 20260506185204 | 49 | 85 | 0.0 | 2.0 | 0.00 | 0.00 | 0.00 | 70 | 1011.5 |
| 20260506183704 | 51 | 85 | 1.0 | 6.0 | 0.00 | 0.00 | 0.00 | 66 | 1011.4 |
| 20260506183204 | 51 | 85 | 2.0 | 6.0 | 0.00 | 0.00 | 0.00 | 65 | 1011.4 |
| 20260506182704 | 51 | 66 | 4.0 | 9.0 | 0.00 | 0.00 | 0.00 | 65 | 1011.4 |
| 20260506182226 | 51 | 41 | 4.0 | 9.0 | 0.00 | 0.00 | 0.00 | 65 | 1011.4 |
| 20260506181705 | 52 | 65 | 4.0 | 9.0 | 0.00 | 0.00 | 0.00 | 65 | 1011.4 |
| 20260506181205 | 52 | 49 | 6.0 | 7.0 | 0.00 | 0.00 | 0.00 | 64 | 1011.4 |
| 20260506180705 | 52 | 72 | 5.0 | 6.0 | 0.00 | 0.00 | 0.00 | 64 | 1011.4 |
| 20260506180205 | 52 | 83 | 1.0 | 6.0 | 0.00 | 0.00 | 0.00 | 64 | 1011.4 |
| 20260506175205 | 52 | 72 | 1.0 | 6.0 | 0.00 | 0.00 | 0.00 | 62 | 1011.3 |
| 20260506174705 | 53 | 72 | 4.0 | 4.0 | 0.00 | 0.00 | 0.00 | 61 | 1011.3 |
| 20260506174205 | 53 | 89 | 2.0 | 5.0 | 0.00 | 0.00 | 0.00 | 61 | 1011.3 |
| 20260506173205 | 53 | 14 | 2.0 | 7.0 | 0.00 | 0.00 | 0.00 | 57 | 1011.4 |
| 20260506172705 | 53 | 34 | 4.0 | 6.0 | 0.00 | 0.00 | 0.00 | 56 | 1011.4 |
| 20260506172204 | 53 | 47 | 4.0 | 7.0 | 0.00 | 0.00 | 0.00 | 57 | 1011.4 |
| 20260506171204 | 53 | 27 | 4.0 | 7.0 | 0.00 | 0.00 | 0.00 | 56 | 1011.4 |
| 20260506170204 | 53 | 87 | 2.0 | 7.0 | 0.00 | 0.00 | 0.00 | 59 | 1011.4 |
| 20260506165205 | 53 | 72 | 3.0 | 7.0 | 0.00 | 0.00 | 0.00 | 59 | 1011.3 |
| 20260506164704 | 53 | 69 | 3.0 | 7.0 | 0.00 | 0.00 | 0.00 | 60 | 1011.1 |
| 20260506164204 | 53 | 75 | 4.0 | 7.0 | 0.00 | 0.00 | 0.00 | 56 | 1011.3 |
| 20260506163705 | 54 | 55 | 5.0 | 7.0 | 0.00 | 0.00 | 0.00 | 53 | 1011.3 |
| 20260506162705 | 54 | 65 | 6.0 | 9.0 | 0.00 | 0.00 | 0.00 | 52 | 1011.1 |
| 20260506162228 | 54 | 76 | 5.0 | 9.0 | 0.00 | 0.00 | 0.00 | 51 | 1011.1 |
| 20260506161212 | 55 | 90 | 3.0 | 6.0 | 0.00 | 0.00 | 0.00 | 51 | 1011.1 |
| 20260506160705 | 55 | 61 | 3.0 | 6.0 | 0.00 | 0.00 | 0.00 | 49 | 1011.1 |
| 20260506155704 | 57 | 104 | 1.0 | 9.0 | 0.00 | 0.00 | 0.00 | 48 | 1011.1 |
| 20260506155204 | 58 | 47 | 2.0 | 11.0 | 0.00 | 0.00 | 0.00 | 44 | 1011.1 |
| 20260506154705 | 58 | 73 | 4.0 | 11.0 | 0.00 | 0.00 | 0.00 | 44 | 1011.1 |
| 20260506154205 | 59 | 0 | 6.0 | 11.0 | 0.00 | 0.00 | 0.00 | 42 | 1011.1 |
| 20260506153704 | 59 | 314 | 2.0 | 11.0 | 0.00 | 0.00 | 0.00 | 43 | 1011.0 |
| 20260506152705 | 59 | 292 | 6.0 | 11.0 | 0.00 | 0.00 | 0.00 | 45 | 1011.1 |
| 20260506150705 | 59 | 303 | 9.0 | 12.0 | 0.00 | 0.00 | 0.00 | 43 | 1011.1 |
| 20260506145705 | 59 | 178 | 8.0 | 11.0 | 0.00 | 0.00 | 0.00 | 42 | 1011.3 |
| 20260506145204 | 59 | 186 | 2.0 | 11.0 | 0.00 | 0.00 | 0.00 | 41 | 1011.3 |
| 20260506144705 | 59 | 283 | 4.0 | 11.0 | 0.00 | 0.00 | 0.00 | 43 | 1011.3 |
| 20260506144205 | 59 | 183 | 6.0 | 11.0 | 0.00 | 0.00 | 0.00 | 44 | 1011.4 |
| 20260506143705 | 58 | 216 | 2.0 | 12.0 | 0.00 | 0.00 | 0.00 | 44 | 1011.4 |
| 20260506143204 | 58 | 245 | 5.0 | 12.0 | 0.00 | 0.00 | 0.00 | 46 | 1011.4 |
| 20260506142704 | 58 | 224 | 6.0 | 10.0 | 0.00 | 0.00 | 0.00 | 43 | 1011.4 |
| 20260506142205 | 59 | 321 | 4.0 | 10.0 | 0.00 | 0.00 | 0.00 | 46 | 1011.4 |
| 20260506141204 | 58 | 310 | 4.0 | 10.0 | 0.00 | 0.00 | 0.00 | 42 | 1011.6 |
| 20260506140705 | 57 | 330 | 7.0 | 10.0 | 0.00 | 0.00 | 0.00 | 46 | 1011.6 |
| 20260506140205 | 57 | 355 | 5.0 | 10.0 | 0.00 | 0.00 | 0.00 | 47 | 1011.8 |
| 20260506134704 | 57 | 354 | 5.0 | 12.0 | 0.00 | 0.00 | 0.00 | 47 | 1011.8 |
| 20260506134205 | 56 | 326 | 8.0 | 11.0 | 0.00 | 0.00 | 0.00 | 47 | 1011.8 |
| 20260506133705 | 56 | 345 | 8.0 | 14.0 | 0.00 | 0.00 | 0.00 | 48 | 1011.9 |
| 20260506132704 | 56 | 292 | 6.0 | 10.0 | 0.00 | 0.00 | 0.00 | 48 | 1011.9 |
| 20260506132204 | 56 | 317 | 7.0 | 10.0 | 0.00 | 0.00 | 0.00 | 50 | 1012.1 |
| 20260506131705 | 56 | 302 | 3.0 | 11.0 | 0.00 | 0.00 | 0.00 | 47 | 1012.1 |
| 20260506131205 | 56 | 268 | 6.0 | 11.0 | 0.00 | 0.00 | 0.00 | 50 | 1012.1 |
| 20260506130704 | 56 | 303 | 3.0 | 11.0 | 0.00 | 0.00 | 0.00 | 50 | 1012.1 |
| 20260506130204 | 55 | 269 | 3.0 | 9.0 | 0.00 | 0.00 | 0.00 | 53 | 1012.1 |
| 20260506125204 | 53 | 28 | 2.0 | 7.0 | 0.00 | 0.00 | 0.00 | 52 | 1012.3 |
| 20260506124704 | 53 | 306 | 3.0 | 9.0 | 0.00 | 0.00 | 0.00 | 51 | 1012.3 |
| 20260506124205 | 53 | 306 | 4.0 | 10.0 | 0.00 | 0.00 | 0.00 | 51 | 1012.3 |
| 20260506123705 | 53 | 336 | 4.0 | 11.0 | 0.00 | 0.00 | 0.00 | 52 | 1012.4 |
| 20260506123204 | 54 | 323 | 4.0 | 11.0 | 0.00 | 0.00 | 0.00 | 51 | 1012.4 |
| 20260506122705 | 55 | 333 | 6.0 | 7.0 | 0.00 | 0.00 | 0.00 | 52 | 1012.3 |
| 20260506122204 | 55 | 357 | 5.0 | 7.0 | 0.00 | 0.00 | 0.00 | 53 | 1012.3 |
| 20260506121204 | 53 | 298 | 5.0 | 9.0 | 0.00 | 0.00 | 0.00 | 53 | 1012.4 |
| 20260506120704 | 53 | 292 | 3.0 | 9.0 | 0.00 | 0.00 | 0.00 | 53 | 1012.5 |
| 20260506120205 | 53 | 278 | 4.0 | 9.0 | 0.00 | 0.00 | 0.00 | 54 | 1012.6 |
| 20260506115704 | 53 | 334 | 2.0 | 6.0 | 0.00 | 0.00 | 0.00 | 51 | 1012.6 |
| 20260506115204 | 53 | 252 | 3.0 | 9.0 | 0.00 | 0.00 | 0.00 | 53 | 1012.6 |
| 20260506114705 | 52 | 350 | 2.0 | 9.0 | 0.00 | 0.00 | 0.00 | 52 | 1012.6 |
| 20260506114204 | 52 | 323 | 4.0 | 6.0 | 0.00 | 0.00 | 0.00 | 51 | 1012.7 |
| 20260506113704 | 53 | 319 | 3.0 | 7.0 | 0.00 | 0.00 | 0.00 | 51 | 1012.6 |
| 20260506113204 | 53 | 279 | 2.0 | 7.0 | 0.00 | 0.00 | 0.00 | 53 | 1012.6 |
| 20260506112705 | 52 | 307 | 2.0 | 7.0 | 0.00 | 0.00 | 0.00 | 51 | 1012.8 |
| 20260506112227 | 53 | 327 | 2.0 | 6.0 | 0.00 | 0.00 | 0.00 | 53 | 1012.7 |
| 20260506111705 | 53 | 295 | 2.0 | 6.0 | 0.00 | 0.00 | 0.00 | 53 | 1012.7 |
| 20260506111204 | 53 | 303 | 3.0 | 9.0 | 0.00 | 0.00 | 0.00 | 50 | 1012.8 |
| 20260506110705 | 53 | 326 | 3.0 | 9.0 | 0.00 | 0.00 | 0.00 | 53 | 1012.8 |
| 20260506110204 | 53 | 279 | 2.0 | 9.0 | 0.00 | 0.00 | 0.00 | 51 | 1012.8 |
| 20260506105705 | 53 | 316 | 4.0 | 11.0 | 0.00 | 0.00 | 0.00 | 51 | 1012.8 |
| 20260506104705 | 53 | 334 | 5.0 | 11.0 | 0.00 | 0.00 | 0.00 | 52 | 1013.0 |
| 20260506103705 | 53 | 307 | 2.0 | 9.0 | 0.00 | 0.00 | 0.00 | 52 | 1012.8 |
| 20260506103205 | 53 | 324 | 4.0 | 9.0 | 0.00 | 0.00 | 0.00 | 51 | 1012.7 |
| 20260506102705 | 53 | 0 | 4.0 | 10.0 | 0.00 | 0.00 | 0.00 | 53 | 1012.8 |
| 20260506102205 | 53 | 336 | 5.0 | 10.0 | 0.00 | 0.00 | 0.00 | 54 | 1012.8 |
| 20260506101704 | 52 | 49 | 3.0 | 10.0 | 0.00 | 0.00 | 0.00 | 57 | 1012.8 |
| 20260506101205 | 51 | 0 | 6.0 | 7.0 | 0.00 | 0.00 | 0.00 | 57 | 1013.0 |
| 20260506100705 | 51 | 350 | 3.0 | 7.0 | 0.00 | 0.00 | 0.00 | 55 | 1013.0 |
| 20260506100222 | 51 | 0 | 3.0 | 7.0 | 0.00 | 0.00 | 0.00 | 55 | 1013.0 |